Location: Estes Par
(40.3770°N, 10.0000°W)
Time: 21:12:58
(UTC-06:00)

OTV 5 (USA 277) - Visible Passes

Search period start: 20 October 2017 00:00
Search period end: 30 October 2017 00:00
Orbit: 404 x 417 km, 43.0° (Epoch: 07 September)

Date Brightness Start Highest point End Pass type
(mag) Time Alt. Az. Time Alt. Az. Time Alt. Az.
20 Oct ? 12:41:43 10° WNW 12:45:05 79° NNE 12:47:35 17° ESE visible
20 Oct ? 14:19:21 10° W 14:20:21 16° WSW 14:20:21 16° WSW visible
21 Oct ? 13:28:05 10° W 13:31:14 38° SSW 13:31:52 34° S visible
22 Oct ? 12:36:56 10° WNW 12:40:13 56° SSW 12:43:30 10° SE visible
22 Oct ? 14:15:56 10° WSW 14:16:16 11° SW 14:16:16 11° SW visible
23 Oct ? 13:23:51 10° WSW 13:26:09 17° SW 13:28:04 12° S visible
24 Oct ? 12:32:23 10° W 12:35:13 26° SSW 12:38:04 10° SSE visible
26 Oct ? 12:29:01 10° WSW 12:30:04 11° SW 12:31:07 10° SSW visible
